Weather History for Racine, WI

Change the Weather History Date:

Tuesday, January 29, 2013

  Actual Average Record
Temperature  
Mean Temperature 48 °F -  
Max Temperature 60 °F 27 °F 60 °F (2013)
Min Temperature 37 °F 12 °F -24 °F (1966)
Degree Days  
Heating Degree Days 16    
Moisture  
Dew Point 46 °F    
Average Humidity 98    
Maximum Humidity 100    
Minimum Humidity 88    
Precipitation  
Precipitation 1.69 in - - ()
Sea Level Pressure  
Sea Level Pressure 29.59 in    
Wind  
Wind Speed 7 mph (SSE)    
Max Wind Speed 20 mph    
Max Gust Speed 22 mph    
Visibility 2 miles    
Events Fog , Rain , Thunderstorm    
Averages and records for this station are not official NWS values.
T = Trace of Precipitation, MM = Missing Value Source: NWS Daily Summary

Daily Weather History Graph

Daily Weather History Graph

Search for Another Location

Airport:

Trip Planner

Search our weather history database for the weather conditions in past years. The results will help you decide how hot, cold, wet, or windy it might be!

Date:

Astronomy

Jan. 29, 2013 Rise Set
Actual Time 7:08 AM CST 5:00 PM CST
Civil Twilight 6:38 AM CST 5:31 PM CST
Nautical Twilight 6:04 AM CST 6:05 PM CST
Astronomical Twilight 5:31 AM CST 6:38 PM CST
Moon 8:02 PM CST (1/29) 8:00 AM CST (1/29)
Length of Visible Light 10h 52m
Length of Day
9h 52m
Waning Gibbous, 93% of the Moon is Illuminated
Jan 29
Waning Gibbous
Feb 3
Last Quarter
Feb 10
New
Feb 17
First Quarter
Feb 25
Full

Hourly Weather History & Observations

Time (CST) Temp. Windchill Dew Point Humidity Pressure Visibility Wind Dir Wind Speed Gust Speed Precip Events Conditions
12:02 AM 37.4 °F 30.8 °F 37.4 °F 100% 29.84 in 1.5 mi ESE 9.2 mph - 0.01 in Rain , Thunderstorm Light Thunderstorms and Rain
12:36 AM 37.4 °F 29.3 °F 37.4 °F 100% 29.81 in 3.0 mi ESE 12.7 mph 19.6 mph 0.26 in Rain , Thunderstorm Light Rain
12:48 AM 37.4 °F 30.3 °F 37.4 °F 100% 29.81 in 2.5 mi ESE 10.4 mph 19.6 mph 0.28 in Rain , Thunderstorm Light Rain
12:53 AM 37.0 °F 29.3 °F 37.0 °F 100% 29.81 in 2.0 mi East 11.5 mph - 0.29 in Rain , Thunderstorm Light Rain
1:10 AM 37.4 °F 28.5 °F 37.4 °F 100% 29.79 in 3.0 mi ESE 15.0 mph - 0.01 in Rain , Thunderstorm Light Thunderstorms and Rain
1:15 AM 37.4 °F 32.1 °F 35.6 °F 93% 29.80 in 1.5 mi East 6.9 mph - 0.01 in Thunderstorm Overcast
1:22 AM 37.4 °F 32.1 °F 37.4 °F 100% 29.79 in 0.8 mi East 6.9 mph - 0.01 in Rain , Thunderstorm Light Thunderstorms and Rain
1:37 AM 37.4 °F 30.8 °F 37.4 °F 100% 29.77 in 0.5 mi ESE 9.2 mph - 0.01 in Fog , Rain , Thunderstorm Light Rain
1:53 AM 37.0 °F 30.4 °F 37.0 °F 100% 29.78 in 0.2 mi ESE 9.2 mph - 0.01 in Fog Fog
2:17 AM 37.4 °F 32.1 °F 37.4 °F 100% 29.74 in 0.2 mi SE 6.9 mph - 0.02 in Fog , Rain , Thunderstorm Light Thunderstorms and Rain
2:53 AM 39.0 °F 34.8 °F 39.0 °F 100% 29.73 in 0.2 mi SSE 5.8 mph - 0.13 in Fog , Thunderstorm Fog
3:00 AM 39.2 °F 34.2 °F 39.2 °F 100% 29.70 in 0.2 mi SSE 6.9 mph - N/A Fog Fog
3:53 AM 39.9 °F 37.8 °F 39.9 °F 100% 29.70 in 0.5 mi SE 3.5 mph - 0.02 in Fog Fog
4:53 AM 37.9 °F - 37.9 °F 100% 29.68 in 0.2 mi Calm Calm - 0.00 in Fog Fog
5:53 AM 37.9 °F - 37.9 °F 100% 29.66 in 0.2 mi Calm Calm - N/A Fog Fog
6:53 AM 37.9 °F - 37.9 °F 100% 29.65 in 0.8 mi Calm Calm - N/A   Overcast
7:10 AM 37.4 °F - 37.4 °F 100% 29.64 in 1.0 mi Calm Calm - N/A   Overcast
7:35 AM 39.2 °F 35.0 °F 39.2 °F 100% 29.66 in 1.0 mi WNW 5.8 mph - 0.01 in Rain Light Rain
7:41 AM 39.2 °F 37.0 °F 39.2 °F 100% 29.66 in 1.0 mi West 3.5 mph - 0.07 in Rain , Thunderstorm Heavy Thunderstorms and Rain
7:46 AM 39.2 °F - 39.2 °F 100% 29.66 in 1.0 mi Calm Calm - 0.10 in Rain , Thunderstorm Heavy Thunderstorms and Rain
7:53 AM 41.0 °F - 41.0 °F 100% 29.68 in 1.2 mi Calm Calm - 0.13 in Rain Heavy Rain
8:32 AM 44.6 °F 43.1 °F 44.6 °F 100% 29.63 in 0.8 mi SSE 3.5 mph - 0.01 in   Mostly Cloudy
8:47 AM 44.6 °F - 44.6 °F 100% 29.63 in 1.0 mi Calm Calm - 0.01 in   Mostly Cloudy
8:53 AM 44.1 °F 42.5 °F 44.1 °F 100% 29.65 in 1.0 mi ESE 3.5 mph - 0.01 in   Overcast
8:57 AM 44.6 °F 43.1 °F 44.6 °F 100% 29.63 in 0.8 mi SE 3.5 mph - N/A   Overcast
9:18 AM 44.6 °F 43.1 °F 44.6 °F 100% 29.63 in 0.5 mi South 3.5 mph - N/A Fog Fog
9:53 AM 48.9 °F - 48.9 °F 100% 29.63 in 1.0 mi South 5.8 mph - N/A   Overcast
10:05 AM 51.8 °F - 51.8 °F 100% 29.62 in 2.5 mi SSW 6.9 mph - N/A   Overcast
10:18 AM 53.6 °F - 53.6 °F 100% 29.62 in 3.0 mi SSW 10.4 mph - N/A   Overcast
10:33 AM 55.4 °F - 55.4 °F 100% 29.59 in 4.0 mi South 9.2 mph - N/A   Overcast
10:53 AM 57.9 °F - 55.9 °F 93% 29.61 in 5.0 mi SW 11.5 mph - N/A   Overcast
11:13 AM 59.0 °F - 55.4 °F 88% 29.60 in 7.0 mi SSW 12.7 mph 19.6 mph N/A   Scattered Clouds
11:31 AM 59.0 °F - 55.4 °F 88% 29.59 in 7.0 mi SSW 12.7 mph 21.9 mph N/A   Mostly Cloudy
11:53 AM 59.0 °F - 55.9 °F 90% 29.60 in 6.0 mi SSW 12.7 mph - N/A   Overcast
12:53 PM 60.1 °F - 57.0 °F 90% 29.56 in 5.0 mi SW 9.2 mph - N/A   Overcast
1:10 PM 60.8 °F - 57.2 °F 88% 29.54 in 5.0 mi SSW 10.4 mph - N/A   Overcast
1:53 PM 57.0 °F - 55.0 °F 93% 29.54 in 5.0 mi SSE 4.6 mph - N/A   Overcast
2:53 PM 52.0 °F - 51.1 °F 97% 29.53 in 4.0 mi Calm Calm - N/A   Overcast
3:00 PM 51.8 °F - 51.8 °F 100% 29.52 in 3.0 mi South 4.6 mph - 0.01 in Rain , Thunderstorm Light Rain
3:09 PM 51.8 °F - 51.8 °F 100% 29.52 in 2.5 mi South 4.6 mph - 0.01 in Rain Light Rain
3:24 PM 51.8 °F - 50.0 °F 94% 29.52 in 1.5 mi South 5.8 mph - 0.05 in Rain Rain
3:34 PM 51.8 °F - 50.0 °F 94% 29.52 in 1.2 mi Calm Calm - 0.07 in Rain Rain
3:53 PM 50.0 °F - 50.0 °F 100% 29.52 in 0.8 mi Calm Calm - 0.07 in   Overcast
4:13 PM 50.0 °F - 48.2 °F 94% 29.50 in 0.2 mi Calm Calm - 0.03 in Fog , Rain Rain
4:25 PM 53.6 °F - 51.8 °F 94% 29.52 in 0.5 mi WSW 9.2 mph - 0.21 in Fog , Rain Heavy Rain
4:30 PM 55.4 °F - 55.4 °F 100% 29.51 in 0.8 mi SW 6.9 mph - 0.24 in Rain Heavy Rain
4:37 PM 55.4 °F - 55.4 °F 100% 29.50 in 1.2 mi West 9.2 mph - 0.28 in Rain Rain
4:45 PM 55.4 °F - 55.4 °F 100% 29.50 in 2.0 mi West 6.9 mph 17.3 mph 0.30 in Rain Rain
4:49 PM 55.4 °F - 55.4 °F 100% 29.50 in 3.0 mi West 4.6 mph - 0.30 in Rain Light Rain
4:53 PM 55.0 °F - 54.0 °F 96% 29.52 in 4.0 mi West 4.6 mph - 0.30 in Rain Light Rain
5:24 PM 53.6 °F - 53.6 °F 100% 29.50 in 2.0 mi NW 3.5 mph - 0.09 in Rain Rain
5:34 PM 53.6 °F - 51.8 °F 94% 29.48 in 3.0 mi North 5.8 mph - 0.12 in Rain Rain
5:53 PM 52.0 °F - 52.0 °F 100% 29.49 in 6.0 mi NNE 3.5 mph - 0.12 in Rain Light Rain
6:04 PM 50.0 °F - 50.0 °F 100% 29.49 in 1.8 mi Calm Calm - 0.01 in Rain Light Rain
6:13 PM 50.0 °F - 48.2 °F 94% 29.50 in 0.5 mi Calm Calm - 0.03 in Fog , Rain Rain
6:53 PM 48.9 °F - 48.9 °F 100% 29.48 in 0.2 mi Calm Calm - 0.10 in Fog , Rain Light Rain
7:10 PM 50.0 °F - 50.0 °F 100% 29.49 in 0.5 mi Calm Calm - 0.02 in Fog , Rain Light Rain
7:17 PM 48.2 °F - 48.2 °F 100% 29.49 in 0.5 mi Calm Calm - 0.04 in Fog , Rain Rain
7:31 PM 50.0 °F - 50.0 °F 100% 29.49 in 0.5 mi Calm Calm - 0.07 in Fog , Rain Rain
7:51 PM 48.2 °F - 48.2 °F 100% 29.49 in 0.5 mi NNE 16.1 mph 20.7 mph 0.13 in Fog , Rain Rain
7:53 PM 48.0 °F - 48.0 °F 100% 29.50 in 0.8 mi North 16.1 mph 20.7 mph 0.14 in Rain Rain
7:58 PM 46.4 °F 39.8 °F 46.4 °F 100% 29.49 in 1.8 mi North 16.1 mph 20.7 mph 0.01 in Rain Rain
8:00 PM 46.4 °F 39.8 °F 46.4 °F 100% 29.49 in 3.0 mi NNE 16.1 mph - 0.02 in Rain Rain
8:53 PM 42.1 °F 35.7 °F 42.1 °F 100% 29.48 in 4.0 mi North 11.5 mph - 0.13 in Rain Light Rain
9:53 PM 41.0 °F 33.5 °F 41.0 °F 100% 29.47 in 4.0 mi North 13.8 mph - 0.13 in Rain Rain
10:53 PM 39.0 °F 31.8 °F 39.0 °F 100% 29.46 in 4.0 mi North 11.5 mph - 0.07 in Rain Light Rain
11:03 PM 39.2 °F 32.0 °F 39.2 °F 100% 29.46 in 4.0 mi North 11.5 mph - 0.02 in Rain Light Rain
11:42 PM 37.4 °F 28.9 °F 37.4 °F 100% 29.45 in 9.0 mi North 13.8 mph 20.7 mph 0.04 in Rain Light Rain
11:53 PM 37.0 °F 26.7 °F 37.0 °F 100% 29.45 in 9.0 mi North 19.6 mph - 0.04 in Rain Light Rain